DLH73 EDDL-EDDF

Flight info

Callsign DLH73
Flight time 0h 34m
Altitude 23000
Route COL5Z COL T911 ROLIS ROLIS5A
Aircraft A388/J-SADE2E3FGHIJ3J4J5M1RWXY/LB1D1

Departure

Time 2026-05-06 13:08
Airport Düsseldorf Airport (EDDL)

Arrival

Time 2026-05-06 13:42
Airport Frankfurt Main Airport (EDDF)
Time Latitude Longitude Altitude Speed Heading
2026-05-06 12:39 51.28087 6.76293 126 ft 0 kts 185°
2026-05-06 12:58 51.28097 6.76296 134 ft 6 kts 194°
2026-05-06 12:58 51.28120 6.76327 127 ft 2 kts 232°
2026-05-06 12:58 51.28126 6.76345 134 ft 2 kts 246°
2026-05-06 12:59 51.28127 6.76348 134 ft 0 kts 249°
2026-05-06 13:03 51.28124 6.76333 129 ft 3 kts 274°
2026-05-06 13:03 51.28130 6.76315 131 ft 2 kts 321°
2026-05-06 13:03 51.28149 6.76294 134 ft 0 kts 325°
2026-05-06 13:03 51.28158 6.76283 134 ft 7 kts 324°
2026-05-06 13:04 51.28197 6.76206 127 ft 11 kts 275°
2026-05-06 13:04 51.28169 6.76098 129 ft 9 kts 235°
2026-05-06 13:04 51.28168 6.76094 130 ft 0 kts 235°
2026-05-06 13:05 51.28156 6.76066 126 ft 7 kts 234°
2026-05-06 13:05 51.28106 6.75965 128 ft 13 kts 231°
2026-05-06 13:05 51.28035 6.75823 127 ft 19 kts 231°
2026-05-06 13:06 51.27952 6.75649 125 ft 21 kts 233°
2026-05-06 13:06 51.27863 6.75453 121 ft 21 kts 245°
2026-05-06 13:06 51.27871 6.75336 123 ft 0 kts 321°
2026-05-06 13:06 51.27892 6.75312 121 ft 8 kts 331°
2026-05-06 13:07 51.27935 6.75282 118 ft 11 kts 346°
2026-05-06 13:07 51.28010 6.75313 117 ft 13 kts 47°
2026-05-06 13:07 51.28087 6.75472 120 ft 20 kts 54°
2026-05-06 13:07 51.28301 6.75932 123 ft 97 kts 53°
2026-05-06 13:08 51.28876 6.77111 165 ft 162 kts 51°
2026-05-06 13:08 51.29611 6.78599 594 ft 179 kts 52°
2026-05-06 13:08 51.30423 6.80322 1086 ft 205 kts 53°
2026-05-06 13:08 51.31322 6.82251 1790 ft 227 kts 53°
2026-05-06 13:09 51.32308 6.84353 2553 ft 248 kts 53°
2026-05-06 13:09 51.33382 6.86632 3398 ft 261 kts 53°
2026-05-06 13:09 51.34466 6.89003 4355 ft 268 kts 55°
2026-05-06 13:09 51.35276 6.91813 4842 ft 293 kts 77°
2026-05-06 13:10 51.35337 6.94961 4982 ft 280 kts 97°
2026-05-06 13:10 51.34997 6.97972 5009 ft 272 kts 102°
2026-05-06 13:10 51.34601 7.00923 5006 ft 271 kts 102°
2026-05-06 13:10 51.34229 7.03869 5011 ft 271 kts 101°
2026-05-06 13:11 51.33889 7.06852 5005 ft 272 kts 100°
2026-05-06 13:11 51.33574 7.09830 5008 ft 271 kts 99°
2026-05-06 13:11 51.33268 7.12817 5003 ft 272 kts 99°
2026-05-06 13:11 51.32783 7.15711 5005 ft 271 kts 117°
2026-05-06 13:12 51.31578 7.17998 5008 ft 270 kts 144°
2026-05-06 13:12 51.29868 7.19200 5013 ft 270 kts 165°
2026-05-06 13:12 51.28045 7.19938 5005 ft 270 kts 166°
2026-05-06 13:12 51.26224 7.20661 5005 ft 270 kts 166°
2026-05-06 13:13 51.24404 7.21412 5007 ft 270 kts 166°
2026-05-06 13:13 51.22607 7.22180 5005 ft 271 kts 165°
2026-05-06 13:13 51.20768 7.22981 5007 ft 270 kts 165°
2026-05-06 13:13 51.18957 7.23776 5007 ft 270 kts 165°
2026-05-06 13:14 51.17159 7.24567 5008 ft 270 kts 165°
2026-05-06 13:14 51.15350 7.25361 5007 ft 270 kts 165°
2026-05-06 13:14 51.13533 7.26156 5006 ft 270 kts 165°
2026-05-06 13:14 51.11748 7.27096 5007 ft 270 kts 156°
2026-05-06 13:15 51.10102 7.28543 5008 ft 271 kts 148°
2026-05-06 13:15 51.08508 7.30152 5008 ft 271 kts 148°
2026-05-06 13:15 51.06906 7.31732 5007 ft 271 kts 148°
2026-05-06 13:15 51.05300 7.33299 5008 ft 271 kts 149°
2026-05-06 13:16 51.03694 7.34862 5006 ft 271 kts 149°
2026-05-06 13:16 51.02106 7.36407 5007 ft 271 kts 149°
2026-05-06 13:16 51.00494 7.37978 5142 ft 273 kts 149°
2026-05-06 13:16 50.98865 7.39564 5667 ft 276 kts 149°
2026-05-06 13:17 50.97239 7.41146 6625 ft 275 kts 149°
2026-05-06 13:17 50.95595 7.42744 7451 ft 278 kts 149°
2026-05-06 13:17 50.93931 7.44358 8278 ft 282 kts 149°
2026-05-06 13:17 50.92247 7.45990 9081 ft 285 kts 149°
2026-05-06 13:18 50.90546 7.47639 9872 ft 289 kts 149°
2026-05-06 13:18 50.88817 7.49312 10558 ft 297 kts 149°
2026-05-06 13:18 50.86985 7.51083 10799 ft 319 kts 149°
2026-05-06 13:18 50.85030 7.52971 11015 ft 338 kts 149°
2026-05-06 13:19 50.82992 7.54939 11585 ft 345 kts 149°
2026-05-06 13:19 50.80939 7.56920 12283 ft 347 kts 149°
2026-05-06 13:19 50.78859 7.58913 12951 ft 351 kts 150°
2026-05-06 13:19 50.76677 7.60575 13550 ft 354 kts 158°
2026-05-06 13:20 50.74383 7.62072 14176 ft 358 kts 158°
2026-05-06 13:20 50.72075 7.63600 14787 ft 362 kts 157°
2026-05-06 13:20 50.69741 7.65152 15085 ft 364 kts 157°
2026-05-06 13:20 50.67400 7.66711 15169 ft 365 kts 157°
2026-05-06 13:21 50.65052 7.68273 15168 ft 365 kts 157°
2026-05-06 13:21 50.62713 7.69826 15171 ft 364 kts 157°
2026-05-06 13:21 50.60402 7.71360 15170 ft 364 kts 157°
2026-05-06 13:21 50.58068 7.72906 15169 ft 364 kts 157°
2026-05-06 13:22 50.55732 7.74452 15171 ft 364 kts 157°
2026-05-06 13:22 50.53398 7.75995 15129 ft 363 kts 158°
2026-05-06 13:22 50.51057 7.77540 14710 ft 364 kts 158°
2026-05-06 13:22 50.48713 7.79086 13955 ft 368 kts 158°
2026-05-06 13:23 50.46347 7.80645 13110 ft 373 kts 157°
2026-05-06 13:23 50.44071 7.82573 12441 ft 371 kts 146°
2026-05-06 13:23 50.42102 7.85164 11831 ft 368 kts 134°
2026-05-06 13:23 50.40449 7.88213 11180 ft 365 kts 129°
2026-05-06 13:24 50.38857 7.91246 10872 ft 353 kts 130°
2026-05-06 13:24 50.37318 7.94144 10709 ft 338 kts 130°
2026-05-06 13:24 50.35836 7.96920 10564 ft 324 kts 130°
2026-05-06 13:24 50.34414 7.99576 10452 ft 311 kts 130°
2026-05-06 13:25 50.33047 8.02129 10334 ft 299 kts 130°
2026-05-06 13:25 50.31728 8.04590 10184 ft 292 kts 130°
2026-05-06 13:25 50.30443 8.06987 10171 ft 291 kts 130°
2026-05-06 13:25 50.29140 8.09414 10171 ft 292 kts 130°
2026-05-06 13:26 50.27834 8.11843 10172 ft 293 kts 130°
2026-05-06 13:26 50.26518 8.14289 10167 ft 293 kts 130°
2026-05-06 13:26 50.25082 8.16525 10167 ft 292 kts 146°
2026-05-06 13:26 50.23394 8.18297 9959 ft 291 kts 155°
2026-05-06 13:27 50.21482 8.19287 10078 ft 293 kts 161°
2026-05-06 13:27 50.19703 8.20716 10108 ft 289 kts 143°
2026-05-06 13:27 50.18304 8.23029 10408 ft 293 kts 124°
2026-05-06 13:27 50.17225 8.25742 10462 ft 295 kts 116°
2026-05-06 13:28 50.16537 8.28752 10634 ft 295 kts 102°
2026-05-06 13:28 50.16310 8.31939 10735 ft 298 kts 91°
2026-05-06 13:28 50.16400 8.35153 10648 ft 296 kts 84°
2026-05-06 13:28 50.16679 8.38289 10648 ft 294 kts 79°
2026-05-06 13:29 50.17107 8.41426 10454 ft 297 kts 77°
2026-05-06 13:29 50.17579 8.44619 9829 ft 305 kts 79°
2026-05-06 13:29 50.17729 8.47922 9429 ft 304 kts 92°
2026-05-06 13:29 50.17344 8.51115 9135 ft 297 kts 109°
2026-05-06 13:30 50.16471 8.53995 8860 ft 291 kts 123°
2026-05-06 13:30 50.15235 8.56456 8593 ft 286 kts 132°
2026-05-06 13:30 50.13832 8.58660 8244 ft 285 kts 137°
2026-05-06 13:30 50.12560 8.60953 8035 ft 282 kts 118°
2026-05-06 13:31 50.12025 8.63906 8029 ft 281 kts 92°
2026-05-06 13:31 50.12342 8.66845 7829 ft 282 kts 66°
2026-05-06 13:31 50.13384 8.69409 7564 ft 279 kts 53°
2026-05-06 13:31 50.14534 8.71847 7247 ft 280 kts 53°
2026-05-06 13:32 50.15694 8.74270 7168 ft 278 kts 48°
2026-05-06 13:32 50.17139 8.76272 7174 ft 279 kts 41°
2026-05-06 13:32 50.18503 8.78429 7171 ft 280 kts 47°
2026-05-06 13:32 50.19806 8.80678 7123 ft 278 kts 47°
2026-05-06 13:33 50.21105 8.82917 6956 ft 278 kts 47°
2026-05-06 13:33 50.22393 8.85141 6621 ft 276 kts 47°
2026-05-06 13:33 50.23454 8.87617 6227 ft 276 kts 70°
2026-05-06 13:33 50.23717 8.90547 5879 ft 274 kts 96°
2026-05-06 13:34 50.23116 8.93342 5524 ft 273 kts 123°
2026-05-06 13:34 50.21780 8.95402 5188 ft 271 kts 150°
2026-05-06 13:34 50.20039 8.96433 4839 ft 268 kts 164°
2026-05-06 13:34 50.18273 8.97257 4488 ft 268 kts 163°
2026-05-06 13:35 50.16492 8.98093 4261 ft 266 kts 164°
2026-05-06 13:35 50.14672 8.98525 4226 ft 264 kts 177°
2026-05-06 13:35 50.12868 8.98657 4221 ft 254 kts 178°
2026-05-06 13:35 50.11165 8.98789 4236 ft 233 kts 178°
2026-05-06 13:36 50.09597 8.98911 4228 ft 220 kts 178°
2026-05-06 13:36 50.08130 8.98620 4219 ft 207 kts 206°
2026-05-06 13:36 50.07093 8.97231 4217 ft 192 kts 242°
2026-05-06 13:36 50.06823 8.95301 4141 ft 183 kts 279°
2026-05-06 13:37 50.07274 8.93490 4156 ft 179 kts 291°
2026-05-06 13:37 50.07594 8.91761 4119 ft 152 kts 280°
2026-05-06 13:37 50.07719 8.90155 4026 ft 161 kts 274°
2026-05-06 13:37 50.07766 8.88315 3997 ft 173 kts 271°
2026-05-06 13:38 50.07758 8.86380 3998 ft 180 kts 268°
2026-05-06 13:38 50.07693 8.84428 3990 ft 181 kts 266°
2026-05-06 13:38 50.07572 8.82469 3963 ft 182 kts 263°
2026-05-06 13:38 50.07393 8.80495 3945 ft 185 kts 261°
2026-05-06 13:39 50.07152 8.78534 3924 ft 186 kts 258°
2026-05-06 13:39 50.06881 8.76622 3878 ft 174 kts 255°
2026-05-06 13:39 50.06667 8.74880 3520 ft 161 kts 259°
2026-05-06 13:39 50.06475 8.73182 3185 ft 166 kts 257°
2026-05-06 13:40 50.06274 8.71388 2833 ft 168 kts 259°
2026-05-06 13:40 50.06089 8.69545 2493 ft 170 kts 258°
2026-05-06 13:40 50.05891 8.67775 2091 ft 167 kts 257°
2026-05-06 13:40 50.05636 8.66031 1742 ft 165 kts 255°
2026-05-06 13:41 50.05344 8.64372 1414 ft 169 kts 252°
2026-05-06 13:41 50.04988 8.62641 1095 ft 167 kts 250°
2026-05-06 13:41 50.04608 8.61029 801 ft 167 kts 247°
2026-05-06 13:41 50.04188 8.59398 512 ft 160 kts 249°
2026-05-06 13:42 50.03808 8.57781 369 ft 146 kts 249°
2026-05-06 13:42 50.03540 8.56701 367 ft 57 kts 248°
2026-05-06 13:42 50.03421 8.56224 356 ft 43 kts 250°
2026-05-06 13:42 50.03330 8.55820 359 ft 36 kts 253°
2026-05-06 13:43 50.03319 8.55463 360 ft 31 kts 281°
2026-05-06 13:43 50.03348 8.55176 357 ft 19 kts 281°
2026-05-06 13:43 50.03352 8.55148 358 ft 0 kts 283°
2026-05-06 13:45 50.03367 8.55006 350 ft 25 kts 271°
2026-05-06 13:45 50.03307 8.54700 356 ft 30 kts 248°
2026-05-06 13:46 50.03314 8.54477 360 ft 11 kts 346°
2026-05-06 13:46 50.03340 8.54467 359 ft 8 kts 344°
2026-05-06 13:46 50.03357 8.54459 358 ft 0 kts 343°
2026-05-06 13:49 50.03358 8.54459 358 ft 0 kts 343°
2026-05-06 13:49 50.03418 8.54426 354 ft 15 kts 340°
2026-05-06 13:50 50.03524 8.54366 356 ft 17 kts 339°
2026-05-06 13:50 50.03575 8.54334 358 ft 0 kts 338°
2026-05-06 13:52 50.03605 8.54320 354 ft 7 kts 354°
2026-05-06 13:52 50.03651 8.54348 359 ft 9 kts 33°
2026-05-06 13:52 50.03687 8.54437 357 ft 12 kts 68°
2026-05-06 13:52 50.03720 8.54574 360 ft 15 kts 69°
2026-05-06 13:53 50.03760 8.54739 355 ft 17 kts 70°
2026-05-06 13:53 50.03806 8.54939 356 ft 22 kts 70°
2026-05-06 13:53 50.03863 8.55184 355 ft 25 kts 69°
2026-05-06 13:53 50.03925 8.55438 360 ft 25 kts 69°
2026-05-06 13:54 50.03987 8.55693 358 ft 25 kts 69°
2026-05-06 13:54 50.04044 8.55928 354 ft 3 kts 69°
2026-05-06 13:54 50.04044 8.55929 353 ft 0 kts 69°
2026-05-06 13:55 50.04049 8.55949 354 ft 7 kts 69°
2026-05-06 13:55 50.04079 8.56056 355 ft 13 kts 52°
2026-05-06 13:55 50.04157 8.56080 358 ft 13 kts 342°
2026-05-06 13:55 50.04247 8.56020 358 ft 15 kts 326°
2026-05-06 13:56 50.04341 8.55931 360 ft 16 kts 336°
2026-05-06 13:56 50.04450 8.55915 357 ft 16 kts 14°
2026-05-06 13:56 50.04527 8.55953 358 ft 0 kts 25°
2026-05-06 13:56 50.04546 8.55968 355 ft 6 kts 32°
2026-05-06 13:57 50.04576 8.56027 359 ft 9 kts 57°
2026-05-06 13:57 50.04628 8.56074 358 ft 8 kts 346°
2026-05-06 13:57 50.04667 8.56048 358 ft 0 kts 336°